Terminal Aerodrome Forecast
Issued by NWS St Louis, MO

Home | Current Version | Previous Version | Text Only | Print | Product List | Glossary On
Versions: 1 2 3 4 5 6 7 8 9 10 11 12 13 14 15 16 17 18 19 20 21 22 23 24 25 26
000
FTUS43 KLSX 181721
TAFSTL
TAF
KSTL 181721Z 1818/1924 VRB04KT P6SM VCTS BKN040CB
      TEMPO 1820/1822 VRB15G30KT 5SM -TSRA BKN030CB
     FM190200 VRB03KT P6SM BKN100
     FM191100 VRB03KT 6SM BR BKN100
     FM191400 19005KT P6SM SCT150=

USA.gov is the U.S. government's official web portal to all federal, state and local government web resources and services.